{"data":{"norad_id":56533,"epoch":"2026-05-24T23:28:26.517216Z","epoch_age_seconds":76148,"freshness":"FRESH","line1":"1 56533U 23065AG  26144.97808469  .00000113  00000+0  13638-4 0  9995","line2":"2 56533  43.0013 127.2136 0000947 263.1018  96.9726 15.27573609168434","mean_motion":15.27573609,"eccentricity":9.47e-5,"inclination_deg":43.0013,"raan_deg":127.2136,"arg_perigee_deg":263.1018,"mean_anomaly_deg":96.9726,"bstar":1.3638e-5,"rev_number":16843,"period_min":94.26714310302,"perigee_km":482.41847692395,"apogee_km":483.71798919509,"semimajor_km":6861.2052330595,"source":"CELESTRAK","updated_at":"2026-05-25T13:38:18.112623Z"}}